Albuquerque, NM

8:04 PM MDT on June 25, 2017 (GMT -0600)
Albuquerque International Sunport

Weather History for KABQ - November, 2013

Change the Weather History Date:

Sunday, November 3, 2013

  Actual Average Record
Temperature  
Mean Temperature 57 °F 50 °F  
Max Temperature 67 °F 62 °F 80 °F (1918)
Min Temperature 46 °F 39 °F 19 °F (1991)
Degree Days  
Heating Degree Days 8 15  
Month to date heating degree days 38 43  
Since 1 July heating degree days 335 309  
Cooling Degree Days 0 0  
Month to date cooling degree days 0 0  
Year to date cooling degree days 1565 1322  
Growing Degree Days 6 (Base 50)    
Moisture  
Dew Point 27 °F    
Average Humidity 34    
Maximum Humidity 46    
Minimum Humidity 22    
Precipitation  
Precipitation T in 0.02 in 0.41 in (1946)
Month to date precipitation T 0.06  
Year to date precipitation 8.02 8.44  
Snow  
Snow 0.00 in - - ()
Month to date snowfall 0.0  
Since 1 July snowfall 0.0  
Since 1 September snowfall 0.0  
Snow Depth 0.00 in    
Sea Level Pressure  
Sea Level Pressure 29.81 in    
Wind  
Wind Speed 7 mph (SW)    
Max Wind Speed 22 mph    
Max Gust Speed 26 mph    
Visibility 10 miles    
Events Rain    
T = Trace of Precipitation, MM = Missing Value Source: NWS Daily Summary

Daily Weather History Graph

Daily Weather History Graph

Search for Another Location

Airport or City:

Trip Planner

Search our weather history database for the weather conditions in past years. The results will help you decide how hot, cold, wet, or windy it might be!

Date:

Astronomy

Nov. 03, 2013 Rise Set
Actual Time 6:29 AM MST 5:09 PM MST
Civil Twilight 6:03 AM MST 5:36 PM MST
Nautical Twilight 5:33 AM MST 6:06 PM MST
Astronomical Twilight 5:03 AM MST 6:35 PM MST
Moon 6:36 AM MST (11/3) 5:28 PM MST (11/3)
Length of Visible Light 11h 32m
Length of Day
10h 40m
New Moon, 0% of the Moon is Illuminated
Nov 3
New Moon
Nov 9
First Quarter
Nov 17
Full
Nov 25
Last Quarter
Dec 2
New

Hourly Weather History & Observations

Time (MST) Temp. Dew Point Humidity Pressure Visibility Wind Dir Wind Speed Gust Speed Precip Events Conditions
12:52 AM 50.0 °F 21.9 °F 33% 29.96 in 10.0 mi SE 4.6 mph - N/A   Overcast
1:52 AM 50.0 °F 21.9 °F 33% 29.93 in 10.0 mi East 5.8 mph - N/A   Overcast
1:52 AM 52.0 °F 19.9 °F 28% 29.91 in 10.0 mi Calm Calm - N/A   Mostly Cloudy
2:52 AM 46.9 °F 21.9 °F 37% 29.90 in 10.0 mi SE 5.8 mph - N/A   Overcast
3:52 AM 48.0 °F 21.9 °F 36% 29.87 in 10.0 mi ESE 8.1 mph - N/A   Overcast
4:52 AM 48.0 °F 24.1 °F 39% 29.90 in 10.0 mi West 5.8 mph - N/A   Overcast
5:52 AM 48.9 °F 24.1 °F 38% 29.90 in 10.0 mi NNE 8.1 mph - 0.00 in Rain Light Rain
6:52 AM 50.0 °F 25.0 °F 38% 29.91 in 10.0 mi Calm Calm - 0.00 in   Mostly Cloudy
7:52 AM 48.9 °F 28.0 °F 44% 29.90 in 10.0 mi NNW 4.6 mph - N/A   Mostly Cloudy
8:52 AM 51.1 °F 30.0 °F 44% 29.91 in 10.0 mi SSE 4.6 mph - N/A   Mostly Cloudy
9:52 AM 55.9 °F 25.0 °F 30% 29.87 in 10.0 mi WSW 3.5 mph - N/A   Scattered Clouds
10:52 AM 60.1 °F 26.1 °F 27% 29.84 in 10.0 mi SSW 8.1 mph - N/A   Scattered Clouds
11:52 AM 59.0 °F 28.0 °F 31% 29.79 in 10.0 mi South 6.9 mph - N/A   Scattered Clouds
12:52 PM 62.1 °F 28.9 °F 29% 29.74 in 10.0 mi WNW 5.8 mph - N/A   Mostly Cloudy
1:52 PM 64.9 °F 32.0 °F 29% 29.69 in 10.0 mi West 13.8 mph 18.4 mph N/A   Mostly Cloudy
2:52 PM 66.9 °F 28.9 °F 24% 29.68 in 10.0 mi West 15.0 mph 25.3 mph N/A   Scattered Clouds
3:52 PM 66.0 °F 27.0 °F 23% 29.67 in 10.0 mi WSW 11.5 mph - N/A   Scattered Clouds
4:52 PM 64.0 °F 32.0 °F 30% 29.67 in 10.0 mi West 3.5 mph - N/A   Scattered Clouds
5:52 PM 61.0 °F 34.0 °F 36% 29.69 in 10.0 mi SSW 6.9 mph - N/A   Scattered Clouds
6:52 PM 59.0 °F 34.0 °F 39% 29.71 in 10.0 mi WSW 3.5 mph - N/A   Scattered Clouds
7:52 PM 57.0 °F 28.0 °F 33% 29.74 in 10.0 mi WSW 4.6 mph - N/A   Scattered Clouds
8:52 PM 57.0 °F 30.0 °F 36% 29.75 in 10.0 mi West 10.4 mph - N/A   Scattered Clouds
9:52 PM 55.9 °F 30.9 °F 39% 29.76 in 10.0 mi WSW 6.9 mph - N/A   Partly Cloudy
10:52 PM 55.0 °F 32.0 °F 42% 29.75 in 10.0 mi WSW 11.5 mph - N/A   Partly Cloudy